7 * 24
多渠道服务支持
HJ-2A卫星是中国于北京时间2020年9月27日08:00发射的人造卫星,发射后顺利进入预定轨道。作为中国自主研发的航天器,该卫星主要服务于对地观测领域,可获取空间环境数据与地表影像信息,在自然资源监测、灾害应急响应、生态环境保护等领域发挥重要作用,进一步提升了中国全天候、多尺度遥感观测能力,为相关行业应用与科学研究提供了持续的数据支撑,推动了中国航天遥感事业的发展。
中国
(CN)
| 数据来源 | 国际轨道数据 |
| 星历时间: | 2026-09-14T13:03:47+0800 3小时前 查看轨道信息 |
| 半长轴: | 7018.386km |
| 偏心率: | 0.0003442 |
| 轨道倾角: | 97.877° |
| 近地点辐角 | 3.606° |
| 升交点赤经 | 333.450° |
| 平近点角 | 356.517° |
| 近地点: | 637.833km |
| 远地点: | 642.665km |
| 周期: | 97.525分钟 |
| 每日圈数: | 14.765459 |